Location: Unspecified
(48.7670°N, 0.0000°E)
Time: 03:18:15
(UTC+00:00)

Vanguard 2 Rocket - Pass Details

Date: 01 October 2020
Orbit: 554 x 3326 km, 32.9° (Epoch: 26 October)

Event Time Altitude Azimuth Distance (km) Brightness Sun altitude
Exits shadow 23:25:51 14° 106° (ESE) 5,690 10.7 -44.6°
Drops below altitude 10° 23:28:46 10° 98° (E) 6,119 10.9 -44.7°
Sets 23:36:04 0° 84° (E) 7,307 11.5 -44.8°
